Cloud_Cover
100 100 100 100 100 100 100 100 100 26 15 57 65 94 100 100 100 100 20 5 5 5
100 100 100 100 100 100 99 88 19 17 99 99 100 99 99 100 100 49 70 90 91 27
100 100 100 100 100 72 87 92 89 94 100 100 100 100 100 100 99 83 75 35 25 45
100 100 100 100 100 90 98 100 100 100 100 100 100 100 100 100 97 67 23 60 9 31
100 100 100 100 100 100 100 100 100 100 100 100 100 100 96 83 99 100 99 49 56 48
100 100 100 100 100 100 100 100 100 100 100 100 100 100 99 100 97 69 60 41 53 5
100 100 100 100 100 100 100 100 100 100 100 100 100 100 100 76 85 92 92 40 5 5
100 100 100 100 100 100 100 100 100 100 100 100 100 97 99 88 95 46 38 5 5 5
100 100 100 100 100 100 100 100 100 100 100 100 89 99 76 8 46 6 6 36 42 5
97 100 100 100 100 100 100 100 100 99 66 80 100 92 21 44 19 17 53 61 5 24
100 100 100 100 100 100 100 98 33 92 99 69 74 75 66 54 14 14 31 5 42 60
100 98 88 100 100 69 87 100 100 76 33 45 88 89 94 87 23 21 5 56 85 84
77 100 100 98 98 92 47 5 5 16 29 68 75 95 77 20 5 10 48 72 56 12
94 80 100 31 6 5 11 31 7 6 53 55 38 42 53 57 7 16 39 23 8 5